1507417201.1,47495,11.19,73154.5,-6.93,-8.07,-8.07,0,*57
1507417202.32,47496,11.19,73154.3,-6.93,-8.17,-8.17,0,*54
1507417203.57,47497,11.19,73148.5,-6.93,-8.07,-8.17,0,*54
1507417204.79,47498,11.19,73150.0,-6.93,-8.17,-8.17,0,*5A
1507417206.01,47499,11.19,73148.5,-6.93,-8.17,-8.17,0,*5B
1507417207.27,47500,11.19,73152.8,-6.93,-8.17,-8.07,0,*5B
1507417208.52,47501,11.19,73150.3,-6.93,-8.21,-8.07,0,*5F
1507417209.77,47502,11.19,73152.3,-6.93,-8.17,-8.07,0,*59
1507417211.03,47503,11.19,73156.8,-6.93,-8.17,-8.07,0,*58
1507417212.25,47504,11.19,73154.0,-6.93,-8.17,-8.17,0,*5E
1507417213.5,47505,11.19,73152.8,-6.91,-8.25,-8.11,0,*5A
1507417214.78,47506,11.19,73154.8,-6.93,-8.07,-8.07,0,*5C
1507417216.01,47507,11.19,73150.5,-6.93,-8.17,-8.17,0,*5D
1507417217.23,47508,11.19,73156.3,-6.93,-8.17,-8.17,0,*52
1507417218.45,47509,11.19,73150.5,-6.93,-8.17,-8.17,0,*53
1507417219.67,47510,11.19,73152.3,-6.93,-8.21,-8.17,0,*5E
1507417220.88,47511,11.19,73160.3,-6.93,-8.21,-8.17,0,*5F
1507417222.1,47512,11.19,73154.0,-6.93,-8.21,-8.17,0,*5C
1507417223.32,47513,11.19,73156.8,-6.93,-8.21,-8.17,0,*5D
1507417224.51,47514,11.19,73160.0,-6.95,-8.21,-8.17,0,*5C
1507417225.74,47515,11.19,73158.5,-6.93,-8.17,-8.21,0,*5B
1507417226.96,47516,11.19,73150.3,-6.93,-8.21,-8.17,0,*58
1507417228.18,47517,11.19,73158.0,-6.93,-8.17,-8.17,0,*5C
1507417229.4,47518,11.19,73156.3,-6.93,-8.17,-8.17,0,*53
1507417230.65,47519,11.19,73156.3,-6.93,-8.17,-8.07,0,*53
1507417231.88,47520,11.19,73152.3,-6.93,-8.17,-8.17,0,*58
1507417233.07,47521,11.19,73154.8,-6.95,-8.17,-8.17,0,*5F
1507417234.29,47522,11.19,73156.3,-6.93,-8.17,-8.17,0,*5A
1507417235.51,47523,11.19,73154.5,-6.93,-8.21,-8.21,0,*5B
1507417236.73,47524,11.19,73156.0,-6.93,-8.29,-8.21,0,*54
1507417237.96,47525,11.19,73154.8,-6.93,-8.17,-8.17,0,*5D
1507417239.18,47526,11.19,73152.3,-6.93,-8.17,-8.21,0,*5B
1507417240.4,47527,11.19,73156.3,-6.93,-8.17,-8.17,0,*5F
1507417241.62,47528,11.19,73150.8,-6.93,-8.21,-8.21,0,*50
1507417242.84,47529,11.19,73150.0,-6.93,-8.21,-8.21,0,*51
1507417244.06,47530,11.19,73154.3,-6.93,-8.21,-8.17,0,*5C
1507417245.34,47531,11.19,73152.5,-6.91,-8.11,-8.03,0,*59
1507417246.61,47532,11.19,73152.8,-6.91,-8.03,-8.03,0,*59
1507417247.85,47533,11.19,73152.8,-6.91,-8.17,-8.03,0,*5D
1507417249.1,47534,11.19,73152.0,-6.91,-8.17,-8.03,0,*5A
1507417250.38,47535,11.19,73152.3,-6.91,-8.11,-8.03,0,*5D
1507417251.6,47536,11.19,73156.8,-6.93,-8.21,-8.17,0,*5A
1507417252.82,47537,11.19,73154.3,-6.93,-8.21,-8.17,0,*5B
1507417254.04,47538,11.19,73152.0,-6.93,-8.21,-8.17,0,*54
1507417255.25,47539,11.19,73152.0,-6.93,-8.21,-8.17,0,*55
1507417256.51,47540,11.19,73156.3,-6.93,-8.17,-8.07,0,*5F
1507417257.7,47541,11.19,73160.0,-6.95,-8.17,-8.17,0,*59
1507417258.92,47542,11.19,73152.3,-6.93,-8.17,-8.17,0,*5C
1507417260.14,47543,11.19,73154.5,-6.93,-8.21,-8.17,0,*58
1507417261.42,47544,11.19,73158.3,-6.91,-8.11,-8.03,0,*5B
1507417262.7,47545,11.19,73152.0,-6.91,-8.11,-8.11,0,*59
1507417263.95,47546,11.19,73158.0,-6.91,-8.17,-8.11,0,*5C
1507417265.17,47547,11.19,73152.0,-6.93,-8.21,-8.17,0,*5C
1507417266.39,47548,11.19,73148.0,-6.93,-8.21,-8.17,0,*53
1507417267.61,47549,11.19,73148.3,-6.93,-8.21,-8.17,0,*52
1507417268.83,47550,11.19,73154.8,-6.93,-8.21,-8.17,0,*5A
1507417270.05,47551,11.19,73154.8,-6.91,-8.17,-8.17,0,*5C
1507417271.27,47552,11.19,73154.8,-6.93,-8.29,-8.21,0,*55
1507417272.49,47553,11.19,73154.5,-6.93,-8.21,-8.21,0,*5C
1507417273.71,47554,11.19,73152.3,-6.93,-8.21,-8.21,0,*5B
1507417274.93,47555,11.19,73152.3,-6.93,-8.21,-8.17,0,*5F
1507417276.16,47556,11.19,73152.0,-6.93,-8.21,-8.21,0,*59
1507417277.37,47557,11.19,73150.8,-6.93,-8.21,-8.17,0,*5D
1507417278.59,47558,11.19,73154.8,-6.93,-8.21,-8.17,0,*52
1507417279.87,47559,11.19,73154.8,-6.93,-8.07,-8.07,0,*56
1507417281.1,47560,11.19,73154.5,-6.93,-8.17,-8.17,0,*5C
1507417282.35,47561,11.19,73154.5,-6.93,-8.17,-8.07,0,*5C
1507417283.54,47562,11.19,73152.3,-6.95,-8.21,-8.17,0,*5D
1507417284.74,47563,11.19,73150.5,-6.95,-8.29,-8.17,0,*54
1507417285.95,47564,11.19,73144.5,-6.93,-8.21,-8.17,0,*5D
1507417287.17,47565,11.19,73146.8,-6.93,-8.21,-8.17,0,*5C
1507417288.39,47566,11.19,73144.8,-6.93,-8.21,-8.17,0,*5F
1507417289.64,47567,11.19,73150.5,-6.93,-8.21,-8.07,0,*5F
1507417290.86,47568,11.19,73150.5,-6.93,-8.21,-8.17,0,*51
1507417292.08,47569,11.19,73146.3,-6.93,-8.17,-8.17,0,*55
1507417293.3,47570,11.19,73152.3,-6.93,-8.21,-8.17,0,*58
1507417294.52,47571,11.19,73154.3,-6.93,-8.21,-8.17,0,*59
1507417295.78,47572,11.19,73154.5,-6.93,-8.17,-8.07,0,*5E
1507417297.0,47573,11.19,73152.5,-6.93,-8.21,-8.21,0,*5E
1507417298.25,47574,11.19,73154.0,-6.91,-8.17,-8.11,0,*5D
1507417299.5,47575,11.19,73154.0,-6.91,-8.25,-8.11,0,*5D
1507417300.76,47576,11.19,73152.8,-6.91,-8.17,-8.11,0,*5F
1507417301.98,47577,11.19,73156.3,-6.93,-8.17,-8.21,0,*5F
1507417303.26,47578,11.19,73152.3,-6.91,-8.11,-8.11,0,*57
1507417304.51,47579,11.19,73154.8,-6.91,-8.25,-8.11,0,*51
1507417305.74,47580,11.19,73148.8,-6.91,-8.17,-8.17,0,*50
1507417306.98,47581,11.19,73152.8,-6.91,-8.17,-8.03,0,*54
1507417308.21,47582,11.19,73150.5,-6.91,-8.17,-8.17,0,*52
1507417309.44,47583,11.19,73152.0,-6.91,-8.17,-8.17,0,*53
1507417310.65,47584,11.19,73154.3,-6.93,-8.21,-8.17,0,*53
1507417311.87,47585,11.19,73154.8,-6.93,-8.21,-8.17,0,*52
1507417313.09,47586,11.19,73152.0,-6.93,-8.29,-8.21,0,*5C
1507417314.32,47587,11.19,73154.8,-6.93,-8.21,-8.21,0,*55
1507417315.54,47588,11.19,73158.0,-6.93,-8.17,-8.21,0,*5F
1507417316.76,47589,11.19,73158.0,-6.93,-8.29,-8.17,0,*56
1507417317.98,47590,11.19,73152.5,-6.93,-8.21,-8.21,0,*53
1507417319.2,47591,11.19,73154.8,-6.93,-8.21,-8.17,0,*57
1507417320.42,47592,11.19,73152.8,-6.93,-8.29,-8.21,0,*59
1507417321.64,47593,11.19,73154.0,-6.93,-8.21,-8.29,0,*58
1507417322.86,47594,11.19,73158.3,-6.93,-8.21,-8.21,0,*57
1507417324.08,47595,11.19,73158.8,-6.93,-8.29,-8.17,0,*5B
1507417325.29,47596,11.19,73154.8,-6.93,-8.29,-8.29,0,*55
1507417326.52,47597,11.19,73154.5,-6.93,-8.29,-8.21,0,*5C
1507417327.73,47598,11.19,73150.3,-6.93,-8.29,-8.29,0,*5B
1507417328.95,47599,11.19,73148.5,-6.93,-8.29,-8.29,0,*5A
1507417330.17,47600,11.19,73154.5,-6.93,-8.29,-8.29,0,*59
1507417331.39,47601,11.19,73154.5,-6.93,-8.21,-8.29,0,*50
1507417332.61,47602,11.19,73154.0,-6.93,-8.29,-8.21,0,*53
1507417333.82,47603,11.19,73154.8,-6.93,-8.33,-8.29,0,*51
1507417335.04,47604,11.19,73152.8,-6.93,-8.21,-8.29,0,*55
1507417336.26,47605,11.19,73148.8,-6.93,-8.41,-8.33,0,*59
1507417337.47,47606,11.19,73150.5,-6.93,-8.29,-8.29,0,*5F
1507417338.67,47607,11.19,73150.5,-6.95,-8.29,-8.29,0,*58
1507417339.89,47608,11.19,73150.8,-6.93,-8.29,-8.21,0,*59
1507417341.1,47609,11.19,73152.0,-6.93,-8.33,-8.29,0,*5B
1507417342.29,47610,11.19,73144.0,-6.95,-8.21,-8.29,0,*56
1507417343.49,47611,11.19,73150.8,-6.95,-8.29,-8.29,0,*5F
1507417344.71,47612,11.19,73148.5,-6.93,-8.29,-8.21,0,*52
1507417345.93,47613,11.19,73148.3,-6.93,-8.21,-8.21,0,*5B
1507417347.15,47614,11.19,73152.5,-6.93,-8.29,-8.21,0,*54
1507417348.37,47615,11.19,73152.3,-6.93,-8.29,-8.29,0,*5D
1507417349.59,47616,11.19,73152.8,-6.93,-8.21,-8.21,0,*5E
1507417350.81,47617,11.19,73152.5,-6.93,-8.29,-8.17,0,*52
1507417352.0,47618,11.19,73148.0,-6.95,-8.29,-8.29,0,*56
1507417353.22,47619,11.19,73148.0,-6.93,-8.29,-8.21,0,*59
1507417354.44,47620,11.19,73148.0,-6.93,-8.29,-8.29,0,*5B
1507417355.65,47621,11.19,73146.8,-6.93,-8.29,-8.17,0,*57
1507417356.87,47622,11.19,73148.8,-6.93,-8.29,-8.21,0,*51
1507417358.07,47623,11.13,73144.3,-6.95,-8.21,-8.21,0,*5E
1507417359.3,47624,11.19,73146.3,-6.91,-8.25,-8.17,0,*5C
1507417360.52,47625,11.19,73140.3,-6.93,-8.21,-8.21,0,*5E
1507417361.74,47626,11.19,73138.5,-6.93,-8.21,-8.21,0,*5D
1507417362.96,47627,11.19,73140.5,-6.93,-8.21,-8.21,0,*5C
1507417364.18,47628,11.19,73142.5,-6.93,-8.29,-8.21,0,*5B
1507417365.4,47629,11.19,73144.5,-6.93,-8.21,-8.21,0,*52
1507417366.62,47630,11.19,73144.0,-6.93,-8.29,-8.17,0,*57
1507417367.84,47631,11.19,73146.3,-6.93,-8.17,-8.17,0,*5B
1507417369.06,47632,11.19,73140.0,-6.93,-8.29,-8.21,0,*50
1507417370.26,47633,11.19,73146.8,-6.95,-8.29,-8.21,0,*57
1507417371.48,47634,11.19,73146.5,-6.93,-8.21,-8.21,0,*5E
1507417372.7,47635,11.19,73148.3,-6.93,-8.29,-8.21,0,*57
1507417373.92,47636,11.19,73142.0,-6.93,-8.29,-8.21,0,*54
1507417375.17,47637,11.19,73146.5,-6.91,-8.17,-8.11,0,*59
1507417376.4,47638,11.19,73148.3,-6.91,-8.17,-8.17,0,*50
1507417377.65,47639,11.19,73152.3,-6.91,-8.25,-8.11,0,*56
1507417378.87,47640,11.19,73152.8,-6.93,-8.21,-8.21,0,*5D
1507417380.1,47641,11.19,73154.3,-6.93,-8.21,-8.21,0,*5C
1507417381.31,47642,11.19,73152.0,-6.93,-8.21,-8.17,0,*5A
1507417382.57,47643,11.19,73150.8,-6.93,-8.21,-8.07,0,*5A
1507417383.78,47644,11.19,73158.0,-6.93,-8.21,-8.17,0,*5C
1507417385.0,47645,11.19,73154.5,-6.93,-8.21,-8.17,0,*5D
1507417386.22,47646,11.19,73154.8,-6.93,-8.21,-8.17,0,*5E
1507417387.47,47647,11.19,73152.8,-6.91,-8.17,-8.11,0,*5E
1507417388.75,47648,11.19,73148.8,-6.91,-8.11,-8.03,0,*54
1507417390.0,47649,11.19,73150.8,-6.93,-8.17,-8.07,0,*55
1507417391.28,47650,11.19,73146.8,-6.91,-8.11,-8.03,0,*5D
1507417392.52,47651,11.19,73152.0,-6.91,-8.03,-8.17,0,*5A
1507417393.8,47652,11.19,73152.0,-6.91,-8.11,-8.03,0,*5F
1507417395.07,47653,11.19,73152.5,-6.91,-8.11,-8.03,0,*5E
1507417396.35,47654,11.19,73156.3,-6.91,-8.11,-8.03,0,*59
1507417397.63,47655,11.19,73150.3,-6.91,-8.11,-8.03,0,*58
1507417398.9,47656,11.19,73148.5,-6.91,-8.11,-8.03,0,*5B
1507417400.17,47657,11.19,73146.3,-6.91,-8.03,-8.11,0,*5A
1507417401.45,47658,11.19,73152.8,-6.91,-8.11,-8.11,0,*56
1507417402.72,47659,11.19,73152.3,-6.91,-8.03,-8.11,0,*54
1507417403.98,47660,11.19,73146.8,-6.93,-8.17,-8.07,0,*5E
1507417405.26,47661,11.19,73156.3,-6.91,-8.11,-8.11,0,*5C
1507417406.53,47662,11.19,73150.0,-6.91,-8.03,-8.03,0,*5F
1507417407.8,47663,11.19,73150.3,-6.91,-8.11,-8.03,0,*5D
1507417409.08,47664,11.19,73150.8,-6.91,-8.11,-8.11,0,*59
1507417410.36,47665,11.19,73154.0,-6.91,-8.11,-8.11,0,*58
1507417411.64,47666,11.19,73148.0,-6.91,-8.11,-8.11,0,*5B
1507417412.92,47667,11.19,73156.0,-6.91,-8.11,-8.11,0,*5A
1507417414.19,47668,11.19,73154.3,-6.91,-8.11,-8.03,0,*56
1507417415.47,47669,11.13,73144.0,-6.91,-8.03,-8.11,0,*57
1507417416.74,47670,11.13,73150.0,-6.91,-8.11,-8.03,0,*5F
1507417418.01,47671,11.19,73152.0,-6.91,-8.03,-8.03,0,*5D
1507417419.28,47672,11.13,73148.3,-6.91,-8.03,-8.03,0,*5E
1507417420.55,47673,11.19,73152.3,-6.91,-8.11,-8.03,0,*5C
1507417421.83,47674,11.19,73150.8,-6.91,-8.11,-8.11,0,*58
1507417423.11,47675,11.13,73146.5,-6.91,-8.11,-8.03,0,*5A
1507417424.39,47676,11.19,73152.8,-6.91,-8.11,-8.11,0,*5A
1507417425.66,47677,11.13,73148.3,-6.91,-7.99,-7.99,0,*5B
1507417426.94,47678,11.19,73152.0,-6.93,-8.07,-8.07,0,*56
1507417428.22,47679,11.13,73150.5,-6.91,-8.11,-8.03,0,*56
1507417429.49,47680,11.19,73150.3,-6.91,-8.03,-7.99,0,*5F
1507417430.76,47681,11.19,73148.8,-6.91,-8.03,-8.03,0,*52
1507417432.03,47682,11.13,73148.5,-6.91,-8.03,-7.99,0,*5D
1507417433.3,47683,11.19,73148.5,-6.91,-8.03,-7.91,0,*54
1507417434.57,47684,11.19,73150.0,-6.91,-8.03,-8.03,0,*57
1507417435.84,47685,11.19,73150.5,-6.91,-7.99,-8.03,0,*5A
1507417437.11,47686,11.13,73144.8,-6.91,-8.03,-8.03,0,*55
1507417438.38,47687,11.13,73150.5,-6.91,-8.03,-8.03,0,*54
1507417439.66,47688,11.19,73152.3,-6.87,-8.07,-8.07,0,*5C
1507417440.94,47689,11.19,73148.8,-6.87,-8.07,-7.99,0,*55
1507417442.21,47690,11.19,73152.3,-6.91,-8.03,-8.03,0,*52
1507417443.49,47691,11.19,73154.0,-6.91,-8.11,-8.03,0,*50
1507417444.75,47692,11.19,73154.5,-6.91,-8.03,-8.03,0,*50
1507417446.03,47693,11.19,73152.5,-6.91,-8.11,-7.99,0,*5E
1507417447.31,47694,11.19,73154.5,-6.87,-7.99,-7.99,0,*51
1507417448.58,47695,11.19,73152.0,-6.91,-8.11,-8.03,0,*54
1507417449.86,47696,11.19,73154.5,-6.87,-7.99,-8.07,0,*5B
1507417451.13,47697,11.13,73148.0,-6.91,-8.03,-8.03,0,*55
1507417452.42,47698,11.19,73150.5,-6.87,-8.07,-8.07,0,*5D
1507417453.68,47699,11.19,73148.8,-6.91,-8.03,-8.03,0,*5B
1507417454.96,47700,11.19,73154.8,-6.87,-8.07,-7.99,0,*55
1507417456.24,47701,11.13,73150.8,-6.87,-7.99,-8.07,0,*54
1507417457.5,47702,11.13,73148.8,-6.91,-8.17,-8.11,0,*5E
1507417458.77,47703,11.13,73144.5,-6.91,-8.11,-8.03,0,*5A
1507417460.06,47704,11.13,73144.5,-6.87,-8.07,-8.07,0,*59
1507417461.33,47705,11.13,73150.5,-6.91,-8.11,-8.03,0,*5C
1507417462.61,47706,11.13,73150.8,-6.87,-8.11,-7.99,0,*54
1507417463.86,47707,11.13,73146.5,-6.91,-8.17,-8.03,0,*58
1507417465.14,47708,11.13,73150.8,-6.87,-8.11,-8.07,0,*52
1507417466.4,47709,11.13,73150.3,-6.91,-8.17,-8.11,0,*55
1507417467.67,47710,11.13,73148.5,-6.87,-8.11,-7.99,0,*53
1507417468.93,47711,11.19,73152.3,-6.91,-8.17,-8.11,0,*5C
1507417470.18,47712,11.13,73148.3,-6.87,-8.11,-8.21,0,*5D
1507417471.43,47713,11.13,73150.0,-6.91,-8.17,-8.11,0,*5E
1507417472.71,47714,11.13,73146.8,-6.91,-8.11,-8.03,0,*5C
1507417473.99,47715,11.19,73152.5,-6.87,-8.11,-8.07,0,*5E
1507417475.24,47716,11.13,73150.8,-6.87,-8.21,-8.11,0,*59
1507417476.53,47717,11.13,73152.0,-6.87,-8.11,-8.07,0,*5C
1507417477.78,47718,11.19,73154.8,-6.87,-8.21,-8.07,0,*50
1507417479.06,47719,11.13,73148.5,-6.87,-8.11,-7.99,0,*5A
1507417480.31,47720,11.19,73152.5,-6.91,-8.17,-8.11,0,*5E
1507417481.56,47721,11.19,73154.3,-6.87,-8.21,-8.11,0,*5D
1507417482.82,47722,11.13,73150.5,-6.87,-8.11,-8.21,0,*5E
1507417484.04,47723,11.19,73154.5,-6.91,-8.25,-8.17,0,*5A
1507417485.3,47724,11.13,73152.8,-6.91,-8.17,-8.11,0,*5A
1507417486.55,47725,11.13,73148.8,-6.91,-8.17,-8.11,0,*5B
1507417487.83,47726,11.19,73154.5,-6.87,-8.11,-8.07,0,*5E
1507417489.12,47727,11.13,73154.0,-6.91,-8.11,-8.07,0,*58
1507417490.4,47728,11.19,73154.3,-6.87,-8.11,-8.07,0,*50
1507417491.66,47729,11.13,73152.0,-6.91,-8.17,-8.11,0,*57
1507417492.91,47730,11.13,73154.5,-6.91,-8.17,-8.11,0,*5F
1507417494.16,47731,11.19,73152.3,-6.87,-8.21,-8.07,0,*5B
1507417495.39,47732,11.13,73152.3,-6.91,-8.17,-8.17,0,*5B
1507417496.67,47733,11.13,73148.0,-6.87,-8.11,-8.11,0,*5D
1507417497.92,47734,11.19,73150.8,-6.91,-8.25,-8.11,0,*5A
1507417499.2,47735,11.19,73148.8,-6.87,-8.11,-8.11,0,*5B
1507417500.48,47736,11.13,73148.8,-6.87,-8.11,-8.11,0,*58
1507417501.76,47737,11.19,73148.5,-6.87,-8.11,-8.07,0,*5E
1507417503.05,47738,11.13,73146.5,-6.87,-8.11,-8.07,0,*51
1507417504.3,47739,11.13,73146.3,-6.87,-8.21,-8.07,0,*53
1507417505.58,47740,11.13,73146.5,-6.87,-8.11,-8.11,0,*59
1507417506.83,47741,11.13,73144.5,-6.87,-8.21,-8.11,0,*5B
1507417508.06,47742,11.19,73148.8,-6.91,-8.25,-8.17,0,*5D
1507417509.31,47743,11.19,73154.8,-6.87,-8.11,-8.25,0,*5D
1507417510.56,47744,11.13,73154.3,-6.87,-8.21,-8.11,0,*5E
1507417511.78,47745,11.19,73158.8,-6.87,-8.21,-8.21,0,*5C
1507417513.06,47746,11.13,73150.3,-6.87,-8.11,-8.11,0,*5F
1507417514.31,47747,11.13,73154.0,-6.87,-8.21,-8.11,0,*5D
1507417515.56,47748,11.19,73154.5,-6.87,-8.21,-8.11,0,*52
1507417516.79,47749,11.13,73154.0,-6.87,-8.21,-8.21,0,*50
1507417518.01,47750,11.13,73150.5,-6.87,-8.21,-8.21,0,*58
1507417519.29,47751,11.13,73150.3,-6.87,-8.11,-8.11,0,*59
1507417520.57,47752,11.13,73152.0,-6.87,-8.11,-8.11,0,*5A
1507417521.82,47753,11.13,73154.0,-6.87,-8.21,-8.11,0,*58
1507417523.07,47754,11.13,73152.5,-6.87,-8.11,-8.21,0,*5F
1507417524.3,47755,11.13,73148.8,-6.91,-8.25,-8.25,0,*5A
1507417525.52,47756,11.13,73148.0,-6.91,-8.25,-8.17,0,*58
1507417526.75,47757,11.19,73154.0,-6.91,-8.25,-8.17,0,*59
1507417527.97,47758,11.13,73154.0,-6.91,-8.37,-8.17,0,*55
1507417529.23,47759,11.13,73158.8,-6.87,-8.25,-8.11,0,*56
1507417530.45,47760,11.19,73160.3,-6.91,-8.25,-8.25,0,*5C
1507417531.67,47761,11.19,73158.0,-6.91,-8.29,-8.29,0,*5D
1507417532.91,47762,11.13,73156.5,-6.91,-8.37,-8.37,0,*5E
1507417534.12,47763,11.13,73156.5,-6.87,-8.33,-8.25,0,*5F
1507417535.35,47764,11.13,73154.3,-6.91,-8.29,-8.29,0,*58
1507417536.58,47765,11.13,73150.5,-6.91,-8.37,-8.37,0,*59
1507417537.8,47766,11.13,73146.8,-6.87,-8.33,-8.25,0,*5A
1507417539.03,47767,11.13,73144.3,-6.91,-8.37,-8.37,0,*5B
1507417540.25,47768,11.13,73140.0,-6.91,-8.41,-8.29,0,*5A
1507417541.49,47769,11.13,73142.8,-6.91,-8.37,-8.37,0,*55
1507417542.71,47770,11.13,73144.8,-6.87,-8.25,-8.33,0,*5D
1507417543.93,47771,11.13,73146.0,-6.87,-8.25,-8.25,0,*5B
1507417545.15,47772,11.13,73148.0,-6.87,-8.33,-8.33,0,*58
1507417546.37,47773,11.13,73150.5,-6.87,-8.37,-8.33,0,*5D
1507417547.59,47774,11.13,73146.5,-6.87,-8.37,-8.33,0,*5A
1507417548.82,47775,11.13,73148.8,-6.87,-8.37,-8.25,0,*5C
1507417550.05,47776,11.13,73144.0,-6.91,-8.41,-8.37,0,*5A
1507417551.26,47777,11.13,73148.0,-6.93,-8.45,-8.33,0,*59
1507417552.5,47778,11.13,73150.0,-6.91,-8.41,-8.37,0,*54
1507417553.73,47779,11.13,73146.0,-6.91,-8.37,-8.37,0,*54
1507417554.96,47780,11.13,73148.5,-6.91,-8.37,-8.37,0,*52
1507417556.19,47781,11.19,73152.5,-6.91,-8.37,-8.29,0,*5C
1507417557.41,47782,11.13,73154.5,-6.91,-8.29,-8.29,0,*50
1507417558.63,47783,11.13,73150.0,-6.91,-8.29,-8.33,0,*5A
1507417559.86,47784,11.13,73150.0,-6.91,-8.29,-8.37,0,*59
1507417561.09,47785,11.13,73146.0,-6.91,-8.37,-8.37,0,*57
1507417562.32,47786,11.13,73142.0,-6.91,-8.37,-8.37,0,*54
1507417563.55,47787,11.13,73146.8,-6.91,-8.37,-8.37,0,*55
1507417564.79,47788,11.13,73148.5,-6.91,-8.37,-8.37,0,*5A
1507417566.02,47789,11.13,73148.0,-6.91,-8.37,-8.37,0,*5B
1507417567.25,47790,11.13,73150.5,-6.91,-8.37,-8.37,0,*53
1507417568.48,47791,11.19,73152.5,-6.91,-8.37,-8.29,0,*5D
1507417569.71,47792,11.13,73148.3,-6.91,-8.37,-8.37,0,*51
1507417570.93,47793,11.13,73148.0,-6.91,-8.29,-8.29,0,*50
1507417572.16,47794,11.13,73148.8,-6.91,-8.37,-8.41,0,*56
1507417573.38,47795,11.13,73148.5,-6.91,-8.37,-8.29,0,*59
1507417574.62,47796,11.13,73144.8,-6.91,-8.37,-8.37,0,*55
1507417575.84,47797,11.13,73144.3,-6.91,-8.37,-8.29,0,*5B
1507417577.08,47798,11.13,73148.3,-6.91,-8.41,-8.37,0,*5A
1507417578.31,47799,11.13,73144.8,-6.91,-8.37,-8.37,0,*5A
1507417579.56,47800,11.19,73140.3,-6.91,-8.41,-8.51,0,*54
1507417580.76,47801,11.13,73146.3,-6.95,-8.41,-8.45,0,*54
1507417581.98,47802,11.13,73142.5,-6.93,-8.55,-8.45,0,*54
1507417583.18,47803,11.13,73148.0,-6.95,-8.55,-8.55,0,*52
1507417584.4,47804,11.19,73158.3,-6.93,-8.45,-8.45,0,*53
1507417585.63,47805,11.13,73156.5,-6.91,-8.41,-8.37,0,*51
1507417586.86,47806,11.13,73148.8,-6.91,-8.41,-8.37,0,*52
1507417588.08,47807,11.13,73144.8,-6.93,-8.45,-8.33,0,*51
1507417589.31,47808,11.13,73144.5,-6.91,-8.37,-8.29,0,*52
1507417590.54,47809,11.13,73146.3,-6.91,-8.37,-8.37,0,*5C
1507417591.73,47810,11.13,73142.0,-6.95,-8.41,-8.33,0,*55
1507417592.94,47811,11.19,73146.5,-6.93,-8.33,-8.33,0,*57
1507417594.14,47812,11.13,73144.5,-6.95,-8.41,-8.41,0,*52
1507417595.35,47813,11.13,73140.5,-6.93,-8.33,-8.33,0,*55
1507417596.57,47814,11.19,73144.5,-6.93,-8.41,-8.33,0,*57
1507417597.79,47815,11.13,73140.3,-6.93,-8.41,-8.41,0,*53
1507417599.01,47816,11.13,73132.0,-6.93,-8.33,-8.41,0,*55
1507417600.23,47817,11.13,73134.8,-6.93,-8.45,-8.41,0,*55
1507417601.45,47818,11.13,73132.3,-6.93,-8.41,-8.41,0,*5E
1507417602.65,47819,11.13,73132.3,-6.95,-8.41,-8.41,0,*59
1507417603.87,47820,11.13,73134.5,-6.93,-8.41,-8.33,0,*50
1507417605.09,47821,11.19,73136.5,-6.93,-8.45,-8.41,0,*50
1507417606.28,47822,11.13,73140.0,-6.95,-8.45,-8.33,0,*50
1507417607.48,47823,11.13,73146.3,-6.95,-8.55,-8.41,0,*55
1507417608.7,47824,11.13,73140.5,-6.93,-8.45,-8.41,0,*55
1507417609.89,47825,11.13,73138.0,-6.95,-8.45,-8.33,0,*57
1507417611.11,47826,11.13,73136.5,-6.93,-8.41,-8.33,0,*56
1507417612.32,47827,11.13,73138.5,-6.93,-8.33,-8.33,0,*52
1507417613.53,47828,11.13,73146.8,-6.93,-8.33,-8.33,0,*5D
1507417614.75,47829,11.13,73144.0,-6.93,-8.33,-8.29,0,*57
1507417615.97,47830,11.13,73144.0,-6.93,-8.41,-8.29,0,*5A
1507417617.18,47831,11.13,73144.5,-6.93,-8.33,-8.29,0,*5E
1507417618.4,47832,11.13,73148.0,-6.93,-8.29,-8.29,0,*56
1507417619.61,47833,11.13,73148.3,-6.93,-8.33,-8.33,0,*57
1507417620.82,47834,11.13,73150.8,-6.93,-8.29,-8.33,0,*5B
1507417622.04,47835,11.13,73152.8,-6.93,-8.33,-8.21,0,*52
1507417623.25,47836,11.13,73148.3,-6.93,-8.33,-8.33,0,*52
1507417624.47,47837,11.13,73146.8,-6.93,-8.33,-8.41,0,*56
1507417625.69,47838,11.13,73138.5,-6.93,-8.41,-8.41,0,*5C
1507417626.91,47839,11.13,73132.8,-6.93,-8.41,-8.33,0,*58
1507417628.12,47840,11.13,73136.8,-6.93,-8.41,-8.33,0,*56
1507417629.35,47841,11.13,73140.5,-6.93,-8.45,-8.41,0,*56
1507417630.57,47842,11.13,73140.8,-6.93,-8.45,-8.41,0,*55
1507417631.79,47843,11.13,73140.0,-6.93,-8.45,-8.41,0,*54
1507417633.01,47844,11.13,73142.3,-6.93,-8.33,-8.29,0,*5C
1507417634.19,47845,11.13,73142.0,-6.95,-8.33,-8.29,0,*5B
1507417635.41,47846,11.13,73144.5,-6.93,-8.33,-8.21,0,*56
1507417636.63,47847,11.13,73146.8,-6.93,-8.33,-8.29,0,*5F
1507417637.82,47848,11.13,73144.3,-6.95,-8.41,-8.29,0,*53
1507417639.01,47849,11.13,73146.8,-6.95,-8.33,-8.29,0,*57
1507417640.22,47850,11.13,73146.8,-6.93,-8.33,-8.29,0,*59
1507417641.45,47851,11.13,73146.8,-6.93,-8.29,-8.21,0,*5B
1507417642.66,47852,11.13,73142.8,-6.93,-8.29,-8.29,0,*50
1507417643.88,47853,11.13,73140.8,-6.93,-8.33,-8.29,0,*5A
1507417645.09,47854,11.13,73140.3,-6.93,-8.33,-8.29,0,*5D
1507417646.3,47855,11.13,73140.0,-6.93,-8.33,-8.33,0,*57
1507417647.49,47856,11.13,73138.3,-6.95,-8.33,-8.29,0,*59
1507417648.71,47857,11.13,73136.8,-6.93,-8.41,-8.41,0,*55
1507417649.93,47858,11.13,73136.8,-6.93,-8.41,-8.33,0,*5F
1507417651.14,47859,11.13,73134.5,-6.93,-8.33,-8.33,0,*5B
1507417652.35,47860,11.13,73136.5,-6.93,-8.33,-8.33,0,*51
1507417653.54,47861,11.13,73138.8,-6.95,-8.33,-8.33,0,*56
1507417654.75,47862,11.13,73138.0,-6.93,-8.33,-8.33,0,*53
1507417655.94,47863,11.13,73136.3,-6.95,-8.45,-8.41,0,*50
1507417657.14,47864,11.13,73132.3,-6.95,-8.41,-8.41,0,*53
1507417658.35,47865,11.13,73132.5,-6.93,-8.33,-8.33,0,*54
1507417659.57,47866,11.13,73134.8,-6.93,-8.41,-8.41,0,*57
1507417660.79,47867,11.13,73134.5,-6.93,-8.41,-8.33,0,*53
1507417662.0,47868,11.13,73134.8,-6.93,-8.33,-8.33,0,*59
1507417663.22,47869,11.13,73132.0,-6.93,-8.41,-8.33,0,*5D
1507417664.41,47870,11.13,73136.3,-6.95,-8.33,-8.33,0,*56
1507417665.62,47871,11.13,73138.8,-6.93,-8.33,-8.33,0,*51
1507417666.83,47872,11.13,73136.5,-6.93,-8.33,-8.29,0,*59
1507417668.05,47873,11.13,73140.0,-6.93,-8.29,-8.29,0,*53
1507417669.23,47874,11.13,73140.3,-6.95,-8.33,-8.33,0,*52
1507417670.44,47875,11.13,73146.8,-6.93,-8.33,-8.33,0,*55
1507417671.66,47876,11.13,73142.5,-6.93,-8.33,-8.41,0,*53
1507417672.86,47877,11.13,73140.3,-6.95,-8.41,-8.45,0,*55
1507417674.08,47878,11.13,73134.5,-6.93,-8.41,-8.33,0,*5D
1507417675.27,47879,11.13,73140.8,-6.95,-8.55,-8.41,0,*5A
1507417676.47,47880,11.13,73136.3,-6.95,-8.45,-8.33,0,*58
1507417677.66,47881,11.13,73138.8,-6.95,-8.45,-8.41,0,*5C
1507417678.86,47882,11.13,73140.0,-6.95,-8.45,-8.45,0,*5B
1507417680.06,47883,11.13,73142.5,-6.95,-8.41,-8.41,0,*5A
1507417681.26,47884,11.13,73142.5,-6.95,-8.45,-8.45,0,*5D
1507417682.45,47885,11.13,73144.0,-6.95,-8.41,-8.33,0,*59
1507417683.64,47886,11.13,73152.8,-6.95,-8.41,-8.41,0,*5F
1507417684.83,47887,11.13,73146.5,-6.95,-8.33,-8.33,0,*5E
1507417686.02,47888,11.13,73146.0,-6.95,-8.41,-8.33,0,*54
1507417687.21,47889,11.13,73146.0,-6.95,-8.33,-8.33,0,*50
1507417688.4,47890,11.13,73144.8,-6.95,-8.41,-8.33,0,*5D
1507417689.59,47891,11.13,73144.3,-6.95,-8.33,-8.29,0,*52
1507417690.78,47892,11.13,73140.8,-6.95,-8.29,-8.29,0,*5A
1507417691.97,47893,11.13,73144.5,-6.95,-8.21,-8.29,0,*53
1507417693.19,47894,11.13,73144.5,-6.93,-8.29,-8.29,0,*5A
1507417694.38,47895,11.13,73150.5,-6.95,-8.29,-8.29,0,*5D
1507417695.57,47896,11.13,73146.3,-6.95,-8.33,-8.21,0,*5D
1507417696.79,47897,11.13,73154.0,-6.93,-8.29,-8.29,0,*59
1507417698.01,47898,11.13,73150.5,-6.93,-8.21,-8.29,0,*5E
1507417699.2,47899,11.13,73150.3,-6.95,-8.29,-8.29,0,*51
1507417700.39,47900,11.13,73144.5,-6.95,-8.29,-8.29,0,*50
1507417701.61,47901,11.13,73146.5,-6.93,-8.29,-8.21,0,*5F
1507417702.83,47902,11.13,73144.8,-6.93,-8.29,-8.21,0,*5C
1507417704.02,47903,11.13,73140.8,-6.95,-8.33,-8.29,0,*58
1507417705.23,47904,11.13,73140.0,-6.93,-8.33,-8.33,0,*52
1507417706.42,47905,11.13,73138.3,-6.95,-8.29,-8.29,0,*55
1507417707.61,47906,11.13,73136.3,-6.95,-8.33,-8.29,0,*5D
1507417708.81,47907,11.13,73134.3,-6.95,-8.41,-8.29,0,*59
1507417710.0,47908,11.13,73134.3,-6.95,-8.29,-8.29,0,*58